Lapse_Rate
6.8 7.4 7.9 8.4 8.4 8.3 8.7 9.1 8.8 7.3 6.9 7.3 7.0 6.5 6.1 6.0 5.9 6.2 6.4 6.3 6.1 5.9 5.6 5.5 5.4 5.6 6.1 6.0 6.4 6.0 5.7 5.5 5.4 5.6 5.7 5.7 5.7 5.7 5.9 5.7 5.5 5.5 5.3 6.0
7.4 7.9 7.9 7.9 8.1 8.0 8.2 8.5 8.1 6.8 6.5 7.1 7.0 6.9 6.4 6.2 6.3 6.3 6.3 6.3 6.2 6.1 6.0 5.8 5.7 5.6 5.8 6.0 5.9 5.8 5.8 5.9 5.8 5.7 5.7 5.5 5.4 5.5 5.5 5.3 5.2 5.4 5.3 5.7
8.0 8.1 8.0 7.9 7.7 8.0 8.0 8.3 7.8 7.8 6.7 7.0 7.2 7.1 6.5 6.3 6.1 6.1 6.1 6.1 6.2 6.2 6.1 6.0 5.9 5.9 6.1 6.0 5.8 6.0 6.5 6.5 6.4 6.3 6.1 6.0 5.8 5.7 5.3 5.0 5.0 5.2 5.4 5.3
8.1 7.7 7.8 7.6 7.8 7.6 8.3 7.4 7.4 7.0 7.3 8.1 7.3 8.6 7.0 6.7 6.3 6.2 6.1 6.1 6.2 6.2 6.1 6.1 6.1 6.2 6.2 6.1 6.4 6.7 6.7 6.6 6.3 6.0 5.9 5.8 5.7 5.6 5.4 5.3 5.1 5.3 5.5 5.3
8.1 7.7 7.5 7.6 7.6 7.4 7.7 7.3 7.1 7.2 7.4 7.4 7.3 7.7 6.9 6.8 6.9 6.4 6.1 6.1 6.2 6.1 6.0 6.0 6.3 6.2 6.1 6.0 5.8 6.7 6.7 6.6 6.2 5.9 5.6 5.5 5.4 5.2 5.1 5.1 5.0 5.0 4.8 4.8
7.9 7.4 7.2 7.5 7.4 7.1 6.7 6.9 7.0 7.1 7.6 7.6 8.0 7.8 7.4 7.5 7.1 6.5 6.3 6.2 6.1 6.0 5.9 6.2 6.3 6.1 5.9 6.0 6.6 6.6 6.7 6.7 6.4 5.9 5.5 5.4 4.9 5.0 5.3 5.4 5.5 5.4 5.3 5.2
7.3 7.2 6.8 7.0 6.8 6.6 6.8 7.0 7.8 7.7 7.7 7.5 7.1 7.4 7.4 7.1 6.5 6.4 6.1 6.1 6.1 5.9 6.1 6.2 6.1 6.0 6.2 6.5 6.5 6.5 6.6 6.4 6.2 6.0 5.6 5.1 4.7 4.9 5.1 5.1 5.2 5.3 5.2 5.1
8.1 7.7 6.8 6.7 7.2 7.1 6.9 7.4 8.2 7.5 9.0 8.3 7.1 7.4 6.9 6.5 6.2 6.0 6.0 6.0 6.1 6.0 6.1 6.0 5.8 5.9 6.4 6.4 6.4 6.5 6.4 6.3 6.1 6.1 5.9 5.1 4.8 4.7 4.9 4.8 4.8 4.7 4.7 4.7
7.9 8.1 6.9 6.8 6.7 6.9 7.3 7.4 7.8 7.9 7.9 8.2 8.6 6.5 6.2 6.2 6.2 6.0 6.0 6.0 6.1 6.1 6.0 5.9 5.9 6.2 6.3 6.4 6.4 6.4 6.2 6.1 6.1 5.9 5.8 5.6 5.5 5.3 4.8 4.7 4.6 4.6 4.4 4.1
7.0 7.3 6.4 6.0 6.5 6.4 7.0 7.3 7.4 7.7 7.0 6.9 8.1 7.2 6.6 6.5 6.5 6.1 6.0 6.0 6.1 6.0 5.9 6.0 6.1 6.3 6.2 6.3 6.2 6.1 6.0 6.0 5.9 5.9 5.7 5.6 5.4 5.0 4.8 4.6 4.5 4.5 4.7 4.8
6.6 6.9 6.9 6.0 6.6 7.2 6.8 7.1 7.4 7.2 6.9 7.2 7.9 6.6 6.4 6.5 6.2 6.0 6.0 6.0 6.0 5.9 5.8 6.3 6.2 6.2 6.2 6.3 6.1 6.1 6.2 6.0 5.8 5.9 5.7 5.5 5.3 5.0 5.0 4.7 4.6 5.0 5.1 4.9
6.5 6.8 7.2 7.6 6.1 6.8 6.9 7.5 7.2 6.8 6.3 6.5 7.2 6.2 6.5 6.2 6.0 5.9 6.1 6.2 6.0 5.7 6.0 6.3 6.2 6.2 6.2 6.2 6.1 6.2 6.2 6.0 5.9 5.8 5.6 5.4 5.2 5.0 4.7 4.6 5.1 5.3 5.3 4.9
6.1 6.8 7.1 7.6 7.0 6.4 6.9 7.2 7.3 6.6 6.9 6.7 7.2 6.4 6.3 6.1 6.2 6.3 6.3 6.2 6.0 5.7 6.2 6.3 6.2 6.2 6.2 6.2 6.3 6.1 6.0 6.1 5.8 5.7 5.6 5.4 5.0 4.8 4.5 4.6 5.1 5.2 5.1 4.9
6.0 6.6 6.8 7.4 7.0 7.5 7.5 7.0 7.1 7.2 7.1 6.8 6.8 6.5 6.5 6.5 6.5 6.5 6.3 6.1 5.8 5.5 6.2 6.2 6.2 6.2 6.3 6.2 6.2 6.0 5.8 5.8 5.7 5.6 5.5 5.3 4.8 4.4 4.2 4.5 5.0 4.9 4.7 4.7
5.4 6.3 6.3 6.9 7.1 7.4 7.2 6.9 7.3 7.3 7.3 7.1 7.1 6.7 6.7 6.5 6.6 6.6 6.3 5.9 5.7 6.0 6.2 6.1 6.2 6.2 6.3 6.2 6.1 5.9 5.8 5.6 5.7 5.5 5.5 5.1 4.7 4.3 3.9 4.1 4.7 4.6 4.6 4.6
5.2 6.2 7.0 7.0 7.1 7.6 7.1 7.1 7.4 7.5 7.5 7.6 6.7 6.5 6.7 6.8 6.8 6.5 6.1 5.8 5.9 6.2 6.2 6.2 6.2 6.2 6.3 6.2 6.1 5.9 5.6 5.5 5.3 5.2 5.3 5.0 4.5 4.2 3.7 4.0 4.4 4.4 4.3 4.4
5.9 7.1 7.1 7.3 7.1 7.2 7.4 7.4 7.2 7.5 7.3 7.1 7.0 6.5 6.9 7.0 6.6 6.2 5.8 5.9 6.3 6.3 6.2 6.2 6.2 6.2 6.1 6.0 6.0 5.8 5.6 5.4 5.4 5.5 5.3 4.9 4.7 4.3 3.8 3.8 3.7 4.4 4.4 4.4
6.3 7.0 7.3 7.2 7.3 7.6 6.9 7.1 7.1 7.1 7.0 6.9 6.4 6.6 6.5 6.6 6.4 6.1 6.3 6.3 6.3 6.2 6.2 6.2 6.2 6.2 6.2 6.0 5.8 5.7 5.8 5.6 5.3 5.4 5.1 5.1 4.7 4.4 4.0 3.6 3.5 3.9 4.7 4.4
6.3 7.2 7.2 7.2 7.3 6.6 6.7 6.9 6.9 6.9 6.9 6.5 6.4 6.1 6.2 6.3 6.8 6.1 6.1 6.2 6.3 6.3 6.2 6.1 6.1 6.0 5.9 6.0 5.9 5.8 5.7 5.8 5.5 5.3 5.3 5.2 4.8 4.5 4.1 3.8 3.7 3.7 4.3 4.6
6.2 6.6 6.8 7.2 7.8 7.1 6.6 6.7 6.5 6.6 7.1 6.3 6.1 6.1 6.2 6.4 6.6 6.0 6.3 6.3 6.2 6.1 6.1 6.1 6.1 6.1 6.1 6.0 5.9 6.0 5.9 5.9 5.7 5.4 5.3 5.2 4.9 4.8 4.3 3.9 3.8 3.7 4.2 4.5
6.1 6.3 6.6 6.6 6.7 6.1 6.2 6.4 6.6 6.7 6.6 6.1 6.0 6.2 6.0 5.9 5.6 5.8 6.0 6.0 6.1 6.0 6.0 6.1 6.1 6.1 6.1 6.1 6.0 6.0 5.9 5.9 5.7 5.4 5.4 5.3 5.1 5.1 4.6 4.1 3.9 3.8 4.0 4.3
6.0 6.3 5.8 6.3 6.1 6.2 5.9 6.2 6.3 6.3 5.9 6.0 6.0 5.9 5.8 5.5 5.4 5.7 5.7 5.8 5.9 5.9 6.1 6.1 6.1 6.2 6.2 6.2 6.2 6.2 6.0 5.9 5.8 5.4 5.3 5.5 5.3 5.2 4.8 4.2 4.0 3.9 4.1 4.4
5.4 5.6 5.6 5.8 6.1 5.7 5.8 5.8 5.7 6.1 6.0 6.0 5.9 5.8 5.6 5.4 5.2 5.3 5.4 5.5 5.5 5.9 6.2 6.2 6.2 6.2 6.2 6.1 6.2 6.2 6.1 6.0 6.0 5.4 5.3 5.5 5.4 5.2 5.1 4.5 4.1 4.0 3.9 4.1
6.2 6.0 5.3 5.6 5.4 5.6 5.5 5.7 5.8 5.6 5.8 5.7 5.7 5.5 5.4 5.3 5.4 5.5 5.9 5.8 6.3 6.3 6.4 6.3 6.2 6.2 6.2 6.1 6.1 6.1 6.0 6.0 6.0 5.8 5.3 5.4 5.2 5.4 5.2 4.7 4.2 3.9 4.0 3.9
5.9 5.5 5.3 5.6 5.5 5.4 5.4 5.4 5.5 5.6 5.6 5.5 5.4 5.5 5.5 5.3 5.2 5.3 5.8 6.2 6.3 6.3 6.4 6.4 6.3 6.2 6.2 6.3 6.3 6.2 6.2 6.0 6.1 6.0 5.5 5.6 5.5 5.4 5.3 5.0 4.6 3.9 3.9 4.1
6.0 5.8 5.7 5.5 5.4 5.6 5.5 5.4 5.6 5.7 5.5 5.4 5.4 5.2 5.5 5.6 5.5 6.0 6.1 6.2 6.3 6.3 6.4 6.4 6.3 6.3 6.4 6.5 6.4 6.5 6.3 6.2 6.2 6.1 5.8 5.6 5.6 5.4 5.5 5.1 4.9 4.3 4.1 4.3
Wind_Speed
11 11 12 13 9 9 10 4 7 8 3 3 7 11 10 9 8 7 5 3 3 2 1 1 2 4 4 5 6 6 7 7 6 8 8 9 9 8 9 15 18 20 15 19
5 13 5 2 3 6 5 4 6 3 4 6 9 9 9 9 4 2 1 4 2 2 4 4 4 4 5 6 7 8 10 11 10 9 10 10 11 12 12 15 17 20 20 21
13 5 4 5 5 6 3 6 9 6 7 8 9 10 10 7 7 5 4 2 3 4 6 5 4 6 7 8 8 9 11 11 11 13 11 10 11 10 12 12 10 10 14 14
8 4 6 6 6 4 9 2 3 7 10 5 13 1 13 12 12 8 5 3 3 6 5 7 9 10 10 8 8 8 10 12 12 12 11 13 12 13 12 12 12 12 19 18
4 8 9 8 2 4 4 5 6 7 9 2 10 7 6 6 10 8 4 2 4 5 8 9 9 8 9 9 10 11 12 12 12 12 13 11 14 12 12 12 16 14 12 16
4 2 3 1 2 4 6 6 5 5 6 8 9 8 7 9 7 5 3 2 4 7 8 9 9 9 9 10 10 10 12 13 14 14 14 12 11 13 12 13 12 11 9 8
7 8 5 7 6 6 9 10 5 5 6 6 6 5 3 8 6 2 3 4 5 7 9 9 10 11 11 11 11 11 13 13 15 15 12 12 12 11 11 11 10 13 11 10
7 9 13 10 12 6 10 12 4 5 6 5 7 4 4 7 5 3 0 2 6 8 9 10 10 10 11 11 11 12 13 13 14 14 14 11 9 7 9 10 9 9 9 9
5 4 4 1 3 8 9 12 10 10 6 6 5 5 3 6 8 2 3 5 7 9 10 11 11 10 10 10 12 11 13 13 13 13 9 8 8 9 9 12 11 8 11 9
1 6 6 6 4 7 9 3 5 7 2 4 5 8 2 8 7 3 2 6 8 10 11 11 11 10 10 10 11 12 15 13 11 13 10 8 10 10 11 11 12 13 13 12
4 5 5 3 10 10 8 10 6 4 2 2 3 4 2 4 3 2 4 6 9 10 11 11 11 10 10 11 11 13 14 12 11 11 10 9 8 10 10 11 12 12 11 9
2 5 8 7 8 5 9 6 7 2 3 2 5 3 1 2 1 2 6 6 8 10 10 10 11 11 11 11 12 14 12 11 10 8 9 12 11 10 11 11 13 13 13 11
3 4 7 9 9 8 7 9 5 9 3 3 2 3 5 4 3 2 6 8 9 10 11 11 11 11 11 11 12 14 12 11 9 9 8 10 10 11 12 12 12 11 11 11
4 5 6 8 6 7 4 2 8 12 4 4 2 8 8 5 2 4 6 8 10 10 11 11 11 11 11 11 12 13 12 10 11 9 10 10 10 11 11 12 12 13 10 11
4 2 1 6 3 4 6 1 4 5 7 3 8 8 6 2 3 6 7 9 11 11 12 12 12 11 12 12 11 11 12 10 9 9 10 10 10 12 11 12 11 12 10 11
4 1 2 6 11 12 12 8 9 7 8 11 13 6 2 2 3 6 9 10 11 12 12 13 13 13 12 13 11 10 10 10 10 11 12 10 10 11 12 11 10 11 9 10
2 2 1 4 8 13 9 6 4 7 10 8 7 2 3 4 9 8 9 11 11 12 12 13 13 12 12 13 10 10 10 11 10 11 12 12 10 11 9 11 12 11 11 10
6 3 3 4 4 2 2 0 3 8 9 11 9 7 9 11 4 7 9 11 11 11 12 12 11 11 12 12 10 12 9 12 11 13 11 13 12 11 11 10 11 11 10 8
5 2 3 1 8 6 2 4 1 2 4 9 5 6 9 10 3 6 10 11 10 10 10 11 10 11 12 12 11 10 12 10 14 12 13 13 11 11 10 12 10 9 8 10
3 2 3 1 3 2 5 6 1 5 3 7 5 8 9 12 4 10 12 9 9 8 9 11 11 11 12 13 13 12 11 10 11 13 12 13 10 11 9 10 10 10 7 9
4 3 4 2 4 2 4 3 2 3 4 4 5 6 6 5 6 8 8 8 9 9 11 12 12 11 12 13 14 15 15 10 9 11 13 12 10 9 9 10 8 9 10 9
0 1 2 3 3 2 7 5 1 5 4 3 5 6 7 7 7 7 8 10 10 12 12 13 12 12 13 14 14 15 16 12 9 10 11 12 11 7 7 9 10 10 11 9
3 1 2 3 3 5 6 2 3 4 4 4 4 8 8 7 8 8 9 10 10 13 12 14 14 13 14 15 15 15 15 15 8 12 11 11 11 9 8 9 9 6 7 8
4 4 3 5 7 7 5 4 5 5 6 6 8 8 8 7 8 8 9 10 13 14 15 13 14 15 15 16 16 16 16 15 10 11 11 12 10 10 8 8 6 5 5 5
0 8 6 7 10 8 8 5 2 3 6 7 8 9 10 9 10 9 12 13 12 12 12 12 12 12 14 15 17 17 16 15 13 9 10 8 8 10 8 8 5 5 4 4
6 6 5 4 10 4 8 6 4 9 9 9 9 8 10 10 11 14 11 10 10 11 11 11 12 13 13 14 15 16 17 15 14 11 8 7 7 7 7 6 7 6 5 8
Wind_Direction
207 232 221 216 218 311 303 270 181 106 36 146 148 156 162 159 168 177 161 113 86 46 127 219 299 288 321 315 318 308 305 301 275 272 279 278 279 260 242 254 256 264 264 263
194 235 62 304 245 255 265 240 126 104 173 254 165 159 156 185 163 139 216 160 68 344 345 360 353 327 299 291 276 282 281 283 290 291 292 297 297 292 294 297 297 295 291 287
242 85 137 211 205 222 220 250 157 276 171 244 189 177 178 171 185 178 195 338 242 0 352 351 342 322 319 319 325 321 318 313 311 314 301 298 297 289 282 281 275 274 286 299
260 129 195 207 229 295 256 162 232 167 196 235 206 123 192 169 197 196 168 232 353 5 349 340 344 348 340 332 335 321 323 316 308 315 302 299 298 293 291 293 290 300 296 297
130 186 204 215 238 249 41 143 192 198 230 271 194 259 112 151 221 164 152 14 13 349 358 354 348 336 316 345 357 339 329 316 318 317 313 305 301 301 308 308 308 302 297 289
90 44 244 328 178 250 138 162 167 214 236 238 229 231 184 184 159 137 119 25 6 8 346 349 347 346 350 345 348 336 326 328 329 323 318 327 320 307 300 304 305 298 301 301
184 188 137 170 143 155 186 180 198 222 202 230 85 232 102 97 107 49 59 359 7 357 6 345 354 350 347 347 346 340 337 330 343 340 330 324 319 328 324 317 316 318 311 310
198 202 184 184 239 213 219 214 226 237 242 186 152 239 99 107 112 124 213 24 358 3 2 355 357 352 349 352 345 341 333 339 340 350 344 347 358 332 326 331 315 306 306 310
313 243 105 253 232 257 201 231 269 283 256 281 147 92 200 184 144 162 46 341 2 357 359 357 354 1 348 355 346 345 335 342 350 344 329 321 341 329 321 313 312 307 307 291
320 275 176 140 237 226 270 319 216 229 198 243 210 170 148 185 161 102 358 353 354 356 358 357 355 358 350 351 346 350 355 346 346 339 326 321 323 322 322 318 307 296 295 297
287 238 163 169 210 218 191 236 244 95 68 284 243 109 59 118 80 342 348 353 354 358 1 355 354 355 350 349 350 358 356 344 349 338 327 324 322 310 325 311 301 303 301 295
77 292 261 238 72 342 301 263 150 196 190 249 279 132 170 154 106 326 321 3 354 4 4 355 353 351 352 352 351 360 351 354 351 326 321 323 332 331 323 319 320 326 311 316
31 250 272 231 189 196 239 204 233 128 169 211 243 129 159 153 206 282 354 4 356 3 1 358 353 352 350 352 2 356 355 353 341 328 327 322 324 339 334 336 321 325 307 317
295 280 297 313 349 310 220 239 234 213 212 196 187 139 161 161 316 2 13 1 359 3 359 357 352 351 350 353 1 350 354 347 339 335 329 324 346 340 346 331 333 330 330 325
290 334 320 292 319 5 50 359 235 184 247 170 157 116 89 60 330 21 20 358 357 1 357 355 353 349 348 350 360 350 347 347 341 330 316 335 344 347 344 333 336 325 331 312
13 185 122 70 98 101 89 63 99 108 121 125 98 67 5 22 14 34 12 360 357 357 354 352 351 349 350 349 9 348 342 344 330 330 326 334 345 352 334 340 326 324 326 311
28 140 192 135 157 141 77 356 53 83 58 103 93 184 329 14 13 44 4 2 356 356 353 351 347 349 348 353 21 354 337 332 331 327 333 335 342 343 329 331 332 327 320 314
76 104 126 139 224 71 116 67 89 76 56 59 67 32 2 351 346 59 17 7 358 355 351 347 347 349 351 354 12 359 343 336 325 329 346 338 347 339 335 331 330 333 317 328
21 83 63 93 70 122 139 177 52 54 87 80 44 22 358 320 41 72 23 20 358 351 347 345 350 352 353 355 356 355 2 337 331 338 338 336 338 338 345 335 326 327 327 321
100 2 129 343 102 105 145 110 5 304 153 59 0 10 340 336 350 24 9 11 353 351 355 352 353 356 359 355 350 346 1 8 335 331 327 327 350 346 344 331 325 327 325 316
79 100 89 105 91 144 183 119 264 276 69 72 344 338 334 40 17 352 357 3 2 0 6 352 0 3 4 356 355 353 357 12 354 331 328 329 353 343 346 332 335 327 326 336
260 287 119 261 111 175 165 182 333 52 102 354 11 341 26 19 10 4 11 8 8 4 6 3 1 3 7 358 359 357 1 18 15 349 339 339 348 340 350 339 351 347 343 349
185 308 143 357 57 104 122 140 101 40 357 23 351 24 16 22 15 16 12 12 6 11 8 5 0 2 9 1 1 357 359 359 24 5 347 346 339 354 359 348 353 348 353 355
160 157 173 163 138 146 144 130 65 1 344 15 33 30 29 27 19 15 17 11 14 17 11 358 359 8 3 358 359 357 352 354 37 20 354 345 346 346 3 3 360 9 0 357
272 172 165 126 141 128 110 44 2 128 76 54 51 36 25 18 30 6 31 22 10 8 7 11 11 4 0 355 358 354 347 356 7 26 4 351 345 344 349 3 358 16 13 7
186 188 179 130 110 76 91 92 62 69 51 38 35 51 45 23 27 32 29 24 16 16 15 13 12 7 360 357 355 351 341 352 3 19 15 357 346 347 347 360 354 20 15 34